Clermont-Ferrand Auvergne Airport

Airport
ICAO code: 
LFLC
IATA Code: 
CFE
Summary
ICAO Region: 
EUR
Territory: 
Location: 
Aulnat, Auvergne
Serving: 
Clermont-Ferrand
Elevation: 
1090 ft
Coordinates: 
Aerial View: 
45° 47' 11.98" N, 3° 10' 9.008" E
Metar
Observation
LFLC 060530Z AUTO 34009KT 9999 FEW022 BKN027 BKN036 04/02 Q1014 NOSIG
Station
Clermont-Ferrand
Date/Time
2021-12-06 05:30:00
Wind direction
340°
Wind speed
09 kts
Lowest cloud amount
few clouds
Temperature
4°C
Dew point
2°C
Humidity
86%
QNH
1014 hPa
Weather condition
n/a

Clermont-Ferrand Auvergne Airport is an airport serving the French city of Clermont-Ferrand. It is located 6.7 km east of the city, in Aulnat.

Climatology

Temperate Oceanic climate (Köppen climate classification Cfb).

Runways

Designator Length Width Surface Rops
08L/26R 0 0 UNK No/No
8/26 3015 45 ASP Yes/Yes
Airport map: 
Aerial View: 

SKYbrary Partners:

Safety knowledge contributed by: